SL-8 R/B (3230 NORAD) Tracking and Keplerian Element Data

This shows tracking and keplerian element data for the satellite.

Feedback or suggestion? Click here.




ElementValue
Catalog3230
NameSL-8 R/B
Epoch Orbit86363
Epoch Day15.83652336
Epoch Year2022
RAAN131.7029
Inclination74.0362
Eccentricity0.0030313
Argument of Perigee355.0612
Mean Anonmoly5.0266
Mean Motion14.90990125
Decay Rate7.15E-06
L11 03230U 68040B 22015.83652336 .00000715 00000+0 75749-4 0 9990
L22 03230 74.0362 131.7029 0030313 355.0612 5.0266 14.90990125863632

Live tracking and technical data element details for SL-8 R/B (NORAD 3230). SL-8 R/B can be tracked NOW for your location showing map with azimuth and elevation plus other details from your city location.

Track the satellite on the map from your city or location and see movement details for azimuth, elevation, latitude, longitude, range, height, and movement on the map or in text.







IsCatalogInMostPopularTable: catalog: 3230, numindb: 200
Update: records affected: 1



GetName: 3230 SL-8 R/B

Hit Count: updated at: Mon, 17 Jan 2022 00:42:52 GMT